DLH439R KDFW-EDDF

Flight info

Callsign DLH439R
Flight time N/A
Altitude 35000
Route ZACHH4 BSKAT DCT TINGS DCT ROYYZ DCT APE DCT AIRRA DCT SAEZE DCT MPV DCT ALLEX/N0473F370 N431B ELSIR/M083F380 DCT 50N050W 51N040W 53N030W 54N020W DCT DOGAL DCT BEXET/N0471F390 DCT ENJEX DCT ADHAV DCT AXNEF DCT ZIPWE DCT OZZIL DCT SAWPE Q63 CPT UL9 BIG L607 KONAN DCT KOK DCT SPI T180 NIVNU/N0428F230 T847 IMCOM IMCOM2C
Aircraft A346/H-SDE2E3FGHIJ3J4J5M1RWXY/LB1D1

Departure

Time N/A
Airport Dallas Fort Worth International Airport (KDFW)

Arrival

Time 2026-04-14 03:38
Airport Frankfurt Main Airport (EDDF)
Time Latitude Longitude Altitude Speed Heading
2026-04-14 02:55 51.08039 2.74470 40263 ft 487 kts 110°
2026-04-14 02:55 51.06143 2.84845 40253 ft 487 kts 110°
2026-04-14 02:56 51.04246 2.95161 40250 ft 489 kts 110°
2026-04-14 02:56 51.02325 3.05550 40249 ft 489 kts 110°
2026-04-14 02:57 51.00397 3.15934 40248 ft 489 kts 110°
2026-04-14 02:57 50.98461 3.26309 40247 ft 489 kts 111°
2026-04-14 02:58 50.96529 3.36602 40219 ft 489 kts 110°
2026-04-14 02:58 50.94572 3.46980 40219 ft 490 kts 111°
2026-04-14 02:59 50.92606 3.57351 40219 ft 489 kts 111°
2026-04-14 02:59 50.90630 3.67720 39891 ft 490 kts 111°
2026-04-14 02:59 50.89653 3.72825 39663 ft 489 kts 111°
2026-04-14 03:00 50.88662 3.77991 39410 ft 489 kts 111°
2026-04-14 03:00 50.87672 3.83141 39176 ft 487 kts 111°
2026-04-14 03:00 50.86681 3.88275 39034 ft 486 kts 111°
2026-04-14 03:01 50.84692 3.98528 39023 ft 486 kts 111°
2026-04-14 03:01 50.82696 4.08764 39020 ft 485 kts 111°
2026-04-14 03:02 50.80690 4.19001 39014 ft 485 kts 111°
2026-04-14 03:02 50.78693 4.29144 39006 ft 484 kts 112°
2026-04-14 03:03 50.76680 4.39311 39012 ft 484 kts 112°
2026-04-14 03:03 50.74655 4.49488 39012 ft 484 kts 112°
2026-04-14 03:04 50.72624 4.59639 39012 ft 484 kts 112°
2026-04-14 03:04 50.70596 4.69722 38997 ft 483 kts 112°
2026-04-14 03:05 50.68553 4.79832 39005 ft 482 kts 112°
2026-04-14 03:05 50.66499 4.89940 39006 ft 482 kts 112°
2026-04-14 03:06 50.64436 5.00043 39010 ft 482 kts 112°
2026-04-14 03:06 50.62368 5.10121 39005 ft 482 kts 112°
2026-04-14 03:07 50.60284 5.20225 38992 ft 480 kts 112°
2026-04-14 03:07 50.59260 5.25172 38780 ft 479 kts 112°
2026-04-14 03:07 50.58225 5.30163 38504 ft 477 kts 112°
2026-04-14 03:07 50.57198 5.35114 38137 ft 473 kts 113°
2026-04-14 03:08 50.56175 5.40028 37701 ft 469 kts 113°
2026-04-14 03:08 50.55159 5.44897 37207 ft 467 kts 114°
2026-04-14 03:08 50.54139 5.49765 36688 ft 466 kts 114°
2026-04-14 03:08 50.53120 5.54605 36131 ft 465 kts 115°
2026-04-14 03:09 50.52099 5.59444 35509 ft 466 kts 115°
2026-04-14 03:09 50.51117 5.64322 34928 ft 468 kts 114°
2026-04-14 03:09 50.50211 5.69173 34345 ft 468 kts 114°
2026-04-14 03:09 50.49295 5.74093 33708 ft 468 kts 114°
2026-04-14 03:10 50.48374 5.79013 33044 ft 468 kts 114°
2026-04-14 03:10 50.47448 5.83929 32396 ft 468 kts 114°
2026-04-14 03:10 50.46522 5.88833 31769 ft 468 kts 114°
2026-04-14 03:10 50.45597 5.93733 31134 ft 468 kts 114°
2026-04-14 03:11 50.44666 5.98645 30500 ft 468 kts 113°
2026-04-14 03:11 50.43739 6.03529 29778 ft 468 kts 113°
2026-04-14 03:11 50.42815 6.08375 29065 ft 468 kts 112°
2026-04-14 03:11 50.41882 6.13277 28355 ft 468 kts 112°
2026-04-14 03:12 50.40948 6.18179 27738 ft 467 kts 112°
2026-04-14 03:12 50.40008 6.23091 27375 ft 470 kts 112°
2026-04-14 03:12 50.39066 6.28002 26879 ft 468 kts 112°
2026-04-14 03:12 50.38445 6.31232 26535 ft 465 kts 112°
2026-04-14 03:13 50.37244 6.37653 25929 ft 459 kts 110°
2026-04-14 03:13 50.36540 6.42545 25496 ft 457 kts 106°
2026-04-14 03:13 50.36184 6.45855 25205 ft 455 kts 103°
2026-04-14 03:13 50.35815 6.50711 24767 ft 452 kts 100°
2026-04-14 03:14 50.35518 6.55603 24376 ft 447 kts 99°
2026-04-14 03:14 50.35232 6.60432 23974 ft 442 kts 99°
2026-04-14 03:14 50.34940 6.65220 23574 ft 438 kts 100°
2026-04-14 03:14 50.34641 6.69961 23105 ft 434 kts 100°
2026-04-14 03:15 50.34341 6.74646 22680 ft 429 kts 100°
2026-04-14 03:15 50.34050 6.79281 22272 ft 424 kts 100°
2026-04-14 03:15 50.33609 6.83753 21872 ft 416 kts 106°
2026-04-14 03:15 50.32867 6.88097 21470 ft 408 kts 112°
2026-04-14 03:16 50.31849 6.92209 21069 ft 400 kts 118°
2026-04-14 03:16 50.30687 6.96159 20684 ft 396 kts 119°
2026-04-14 03:16 50.29514 7.00049 20303 ft 393 kts 119°
2026-04-14 03:16 50.28349 7.03920 19893 ft 391 kts 119°
2026-04-14 03:17 50.27195 7.07768 19479 ft 389 kts 119°
2026-04-14 03:17 50.24923 7.15351 18684 ft 384 kts 119°
2026-04-14 03:17 50.23785 7.19142 18303 ft 382 kts 119°
2026-04-14 03:18 50.22653 7.22908 17864 ft 381 kts 119°
2026-04-14 03:18 50.21526 7.26654 17461 ft 378 kts 119°
2026-04-14 03:18 50.20409 7.30366 17077 ft 376 kts 118°
2026-04-14 03:18 50.19378 7.34085 16688 ft 376 kts 116°
2026-04-14 03:19 50.18447 7.37905 16208 ft 375 kts 114°
2026-04-14 03:19 50.17532 7.41727 15802 ft 374 kts 114°
2026-04-14 03:19 50.16627 7.45535 15386 ft 372 kts 114°
2026-04-14 03:19 50.15727 7.49322 14992 ft 370 kts 114°
2026-04-14 03:20 50.14828 7.53086 14598 ft 368 kts 114°
2026-04-14 03:20 50.13941 7.56784 14204 ft 367 kts 114°
2026-04-14 03:20 50.13047 7.60506 13805 ft 366 kts 114°
2026-04-14 03:20 50.12141 7.64230 13361 ft 364 kts 116°
2026-04-14 03:21 50.11101 7.67810 12937 ft 360 kts 121°
2026-04-14 03:21 50.09850 7.71247 12706 ft 370 kts 126°
2026-04-14 03:21 50.08401 7.74604 12738 ft 374 kts 128°
2026-04-14 03:21 50.06918 7.77942 12753 ft 375 kts 128°
2026-04-14 03:22 50.05439 7.81241 12653 ft 375 kts 127°
2026-04-14 03:22 50.03952 7.84575 12208 ft 373 kts 127°
2026-04-14 03:22 50.02478 7.87891 11796 ft 369 kts 127°
2026-04-14 03:22 50.01046 7.91203 11368 ft 367 kts 123°
2026-04-14 03:23 50.00219 7.94967 10998 ft 371 kts 101°
2026-04-14 03:23 50.00340 7.99018 10963 ft 380 kts 80°
2026-04-14 03:23 50.01203 8.02935 10974 ft 384 kts 72°
2026-04-14 03:23 50.02177 8.06816 10973 ft 384 kts 72°
2026-04-14 03:24 50.03151 8.10695 10966 ft 384 kts 72°
2026-04-14 03:24 50.04102 8.14525 10958 ft 384 kts 72°
2026-04-14 03:24 50.05058 8.18417 10960 ft 384 kts 72°
2026-04-14 03:24 50.06006 8.22306 10959 ft 384 kts 72°
2026-04-14 03:25 50.06951 8.26205 10951 ft 383 kts 72°
2026-04-14 03:25 50.07893 8.30104 10956 ft 382 kts 72°
2026-04-14 03:25 50.08831 8.33989 10962 ft 382 kts 72°
2026-04-14 03:25 50.09768 8.37872 10961 ft 382 kts 72°
2026-04-14 03:26 50.10689 8.41696 10934 ft 378 kts 72°
2026-04-14 03:26 50.11602 8.45491 10511 ft 372 kts 72°
2026-04-14 03:26 50.12504 8.49242 10299 ft 361 kts 73°
2026-04-14 03:26 50.13374 8.52870 10084 ft 350 kts 73°
2026-04-14 03:27 50.14213 8.56383 9850 ft 339 kts 73°
2026-04-14 03:27 50.15023 8.59782 9635 ft 327 kts 73°
2026-04-14 03:27 50.15800 8.63055 9411 ft 316 kts 73°
2026-04-14 03:27 50.16543 8.66188 9228 ft 305 kts 74°
2026-04-14 03:28 50.17270 8.69254 9019 ft 296 kts 74°
2026-04-14 03:28 50.17974 8.72225 8847 ft 287 kts 74°
2026-04-14 03:28 50.18657 8.75105 8626 ft 278 kts 74°
2026-04-14 03:28 50.19324 8.77930 8306 ft 275 kts 74°
2026-04-14 03:29 50.19979 8.80712 7997 ft 271 kts 74°
2026-04-14 03:29 50.20627 8.83474 7949 ft 271 kts 73°
2026-04-14 03:29 50.21277 8.86243 7881 ft 267 kts 73°
2026-04-14 03:29 50.21914 8.88944 7358 ft 265 kts 73°
2026-04-14 03:30 50.22546 8.91657 6728 ft 265 kts 73°
2026-04-14 03:30 50.22923 8.94417 6190 ft 255 kts 97°
2026-04-14 03:30 50.22422 8.96950 5888 ft 237 kts 127°
2026-04-14 03:30 50.21241 8.98545 5624 ft 224 kts 158°
2026-04-14 03:31 50.19780 8.99159 5418 ft 212 kts 168°
2026-04-14 03:31 50.18356 8.99470 5198 ft 201 kts 171°
2026-04-14 03:31 50.16965 8.99681 4949 ft 202 kts 181°
2026-04-14 03:31 50.15635 8.98895 4984 ft 212 kts 216°
2026-04-14 03:32 50.14774 8.97055 4980 ft 216 kts 242°
2026-04-14 03:32 50.14270 8.94836 4967 ft 217 kts 251°
2026-04-14 03:32 50.13850 8.92565 4946 ft 217 kts 251°
2026-04-14 03:32 50.13404 8.90318 4947 ft 213 kts 250°
2026-04-14 03:33 50.12937 8.88165 4943 ft 208 kts 249°
2026-04-14 03:33 50.12450 8.86046 4943 ft 207 kts 248°
2026-04-14 03:33 50.11947 8.83934 4823 ft 207 kts 247°
2026-04-14 03:33 50.11437 8.81829 4547 ft 207 kts 248°
2026-04-14 03:34 50.10421 8.77660 3942 ft 206 kts 248°
2026-04-14 03:34 50.09910 8.75554 3644 ft 207 kts 248°
2026-04-14 03:34 50.09400 8.73448 3340 ft 208 kts 249°
2026-04-14 03:35 50.08891 8.71337 3029 ft 208 kts 249°
2026-04-14 03:35 50.08386 8.69242 2715 ft 204 kts 249°
2026-04-14 03:35 50.07895 8.67198 2423 ft 197 kts 249°
2026-04-14 03:35 50.07432 8.65275 2126 ft 186 kts 249°
2026-04-14 03:36 50.06991 8.63440 1865 ft 175 kts 250°
2026-04-14 03:36 50.06577 8.61717 1622 ft 165 kts 250°
2026-04-14 03:36 50.06178 8.60054 1374 ft 162 kts 250°
2026-04-14 03:36 50.05782 8.58416 1155 ft 160 kts 251°
2026-04-14 03:37 50.05400 8.56796 897 ft 158 kts 251°
2026-04-14 03:37 50.05014 8.55201 652 ft 156 kts 253°
2026-04-14 03:37 50.04641 8.53615 423 ft 156 kts 252°
2026-04-14 03:37 50.04271 8.52069 350 ft 130 kts 249°
2026-04-14 03:38 50.04035 8.51084 333 ft 67 kts 249°
2026-04-14 03:38 50.03933 8.50658 329 ft 33 kts 249°
2026-04-14 03:38 50.03816 8.50353 326 ft 34 kts 226°
2026-04-14 03:38 50.03685 8.50188 325 ft 13 kts 197°
2026-04-14 03:39 50.03628 8.50255 329 ft 12 kts 90°
2026-04-14 03:39 50.03635 8.50309 333 ft 0 kts 70°